Location: Chandolas
(44.4033°N, 4.2533°E)
Time: 11:07:23
(UTC+00:00)

Helios 1A Rocket - Pass Details

Date: 15 November 2019
Orbit: 563 x 588 km, 98.3° (Epoch: 15 December)

Event Time Altitude Azimuth Distance (km) Brightness Sun altitude
Rises 05:13:36 0° 15° (NNE) 2,812 6.5 -15.2°
Reaches altitude 10° 05:15:47 10° 17° (NNE) 1,904 5.6 -14.8°
Maximum altitude 05:19:54 77° 103° (ESE) 598 3.1 -14.1°
Drops below altitude 10° 05:23:58 10° 190° (S) 1,873 5.6 -13.4°
Sets 05:26:05 0° 191° (SSW) 2,761 6.4 -13.0°
